Location: Myra
(43.4160°N, 88.0960°W)
Time: 21:28:17
(UTC-05:00)

Daily predictions for brighter satellites

Satellite Brightness Start Highest point End
(mag) Time Altitude Azimuth Time Altitude Azimuth Time Altitude Azimuth
Cosmos 2112 Rocket 4.1 20:49:28 10° S 20:54:34 57° ESE 20:59:39 10° NNE
Cosmos 1238 Rocket 4.4 20:50:22 10° SSE 20:56:48 49° E 21:02:57 10° NNE
ISS -3.8 20:54:27 10° SW 20:57:42 57° SE 21:00:57 10° ENE
Cosmos 1346 2.7 20:55:28 10° S 20:58:13 74° E 21:01:00 10° NNE
Aureole 3 Rocket 3.5 20:52:31 10° S 20:58:39 67° E 21:03:02 10° NNE
OAO 2 Rocket 4.2 20:56:04 10° WSW 21:00:24 31° S 21:04:46 10° ESE
ASTEX 1 3.8 20:56:35 10° SSE 21:01:16 47° ENE 21:05:58 10° N
H-2A R/B 3.7 21:00:46 10° ESE 21:04:05 18° ENE 21:07:28 10° NNE
Helios 1A 3.3 21:01:09 10° S 21:05:21 70° WSW 21:09:34 10° NNW
SJ-11-01 4.4 21:01:01 10° SSE 21:05:43 85° W 21:10:26 10° NNW
SAR-Lupe-4 3.7 21:02:43 10° S 21:06:18 80° WSW 21:09:56 10° NNW
SL-27 R/B 2.5 21:03:40 10° S 21:07:17 65° ESE 21:10:55 10° NNE
Cosmos 921 Rocket 4.5 21:05:13 10° N 21:08:56 25° ENE 21:12:33 10° ESE
Cosmos 1939 Rocket 3.0 21:05:58 10° S 21:09:49 75° WSW 21:13:43 10° NNW
YAOGAN 6 2.5 21:07:11 10° SSE 21:10:39 66° ENE 21:14:08 10° N
Cosmos 1666 2.7 21:07:38 10° N 21:11:24 87° W 21:15:09 10° S
Meteor 2-9 Rocket 4.2 21:07:07 10° N 21:12:38 73° E 21:18:15 10° SSE
Cosmos 1680 Rocket 3.7 21:11:53 10° SSW 21:17:06 79° WNW 21:22:21 10° NNE
Okean 1-7 Rocket 3.7 21:13:31 10° S 21:17:55 61° E 21:22:23 10° NNE
DNEPR-1 R/B 4.1 21:13:58 10° NW 21:18:08 55° WSW 21:22:41 10° SSE
Intercosmos 24 4.0 21:15:57 10° N 21:19:45 50° ENE 21:22:55 12° SSE
Cosmos 2056 Rocket 3.9 21:14:49 10° N 21:19:51 50° ENE 21:24:17 13° SE
Cosmos 1437 Rocket 3.2 21:18:26 10° N 21:22:07 43° ENE 21:25:17 14° SSE
Cosmos 1833 Rocket 4.0 21:19:03 11° SE 21:22:30 19° E 21:26:21 10° NE
Cosmos 2341 Rocket 4.5 21:17:45 10° N 21:23:52 47° ENE 21:29:28 12° SSE
Envisat 3.9 21:20:42 10° S 21:25:34 47° W 21:30:29 10° NNW
Helios 1B rocket 3.3 21:22:59 10° N 21:27:01 52° WNW 21:31:02 10° SSW
MetOp-A 4.3 21:23:25 11° SSE 21:28:31 62° ENE 21:33:48 10° N
Cosmos 1606 Rocket 3.9 21:25:37 10° N 21:29:50 49° ENE 21:33:15 15° SSE
Meteor 2-4 Rocket 3.9 21:24:22 10° SSW 21:30:02 83° WNW 21:35:54 10° N
PSLV R/B 4.0 21:28:23 10° W 21:31:15 33° SSW 21:32:59 19° SE
Cosmos 405 3.3 21:33:30 10° NNW 21:37:02 64° W 21:40:27 11° S
Cosmos 1726 Rocket 3.8 21:35:20 10° N 21:39:34 52° E 21:42:37 18° SSE
Cosmos 1025 Rocket 3.0 21:37:52 10° S 21:42:08 82° W 21:46:26 10° N
USA 245 2.9 21:42:20 26° ESE 21:43:13 36° ENE 21:45:24 10° N
Cosmos 1515 3.9 21:40:58 16° SSE 21:43:48 48° E 21:47:29 10° NNE
COSMOS 2487 3.3 21:43:44 20° SSE 21:45:30 32° ESE 21:48:44 10° NE
CZ-3A R/B 0.3 21:46:34 10° SW 21:50:01 40° SE 21:50:15 38° ESE
Cosmos 1452 Rocket 4.2 21:46:49 10° N 21:51:48 40° ENE 21:55:04 20° ESE
Cosmos 1980 Rocket 3.8 21:47:55 10° N 21:52:26 24° NE 21:56:23 12° E
Aureole 1 Rocket 4.5 21:50:42 10° SW 21:53:26 26° WNW 21:56:02 10° N
Cosmos 2058 Rocket 3.3 21:49:50 10° N 21:54:11 55° E 21:56:51 22° SSE
SPOT 1/Viking Rocket 3.8 21:51:40 19° SE 21:55:12 57° ENE 22:00:16 10° N
YAOGAN 11 4.0 21:52:10 18° SSE 21:55:18 87° E 21:59:40 10° NNW
Cosmos 2181 Rocket 4.1 21:49:25 11° S 21:55:30 63° E 22:01:42 10° NNE
Okean 2 3.7 21:54:45 10° SSW 21:58:48 68° W 22:02:54 10° N
Tiangong 2 0.9 21:55:55 10° W 21:59:06 76° S 22:00:58 22° E
Cosmos 1295 Rocket 4.5 21:55:38 10° N 22:01:51 74° E 22:06:28 19° SSE
Cosmos 2322 Rocket 4.5 21:59:51 10° NNE 22:02:15 13° NE 22:04:39 10° ENE
ARGOS 3.2 21:58:32 18° SSE 22:02:42 89° WSW 22:08:10 10° NNW
Lacrosse 5 rocket 4.2 21:59:48 10° NNW 22:02:44 16° N 22:05:41 10° NE
Nimbus 7 Rocket 4.5 21:58:24 10° NNE 22:04:26 62° ESE 22:09:45 13° S
ERS-1 Rocket 3.8 22:01:28 10° S 22:06:16 45° W 22:11:07 10° NNW
Terra 2.7 22:07:57 23° ESE 22:10:13 36° ENE 22:14:34 10° N
SPOT 5 2.7 22:09:28 21° S 22:12:15 71° WSW 22:16:38 10° NNW
H-2A R/B 2.9 22:15:12 26° ESE 22:17:07 39° ENE 22:21:20 10° N
IGS 5A 4.2 22:18:14 28° ESE 22:19:41 38° ENE 22:23:34 10° N
Cosmos 1626 Rocket 3.7 22:26:20 36° SE 22:27:41 50° E 22:31:52 10° NNE
Cosmos 2278 3.9 22:22:23 10° NNW 22:28:02 65° WSW 22:31:15 26° S
Cosmos 2082 Rocket 2.1 22:23:35 13° SSW 22:28:36 72° ESE 22:34:15 10° NNE
SL-19 R/B 4.5 22:26:19 10° NNE 22:31:26 44° E 22:33:15 32° SSE
Meteor 1-22 Rocket 4.2 22:27:02 10° N 22:32:18 62° ENE 22:34:39 33° SE
ISS -1.7 22:31:26 10° W 22:34:22 29° NNW 22:37:19 10° NE
USA 229 DEB 4.3 22:27:30 10° NNW 22:34:29 54° NE 22:39:05 23° ESE
USA 229 4.3 22:27:36 10° NNW 22:34:35 54° NE 22:39:12 22° ESE
SL-8 Rocket 4.0 22:28:19 10° N 22:34:36 83° W 22:38:28 25° S
Cosmos 2366 rocket 3.9 22:34:13 10° N 22:40:24 82° E 22:43:33 31° SSE
H-2A R/B 2.3 22:40:27 27° S 22:43:01 60° W 22:48:01 10° NNW
Cosmos 2228 3.7 22:40:13 10° NNW 22:44:21 48° W 22:46:19 27° SSW
Cosmos 921 Rocket 4.4 22:43:15 10° NW 22:47:16 33° W 22:49:22 21° SW
Cosmos 158 Rocket 4.3 22:46:06 38° SSE 22:47:34 49° ESE 22:52:45 10° NNE
Cosmos 2369 4.4 22:42:21 10° NW 22:47:47 45° WSW 22:50:41 25° SSW
Meteor 1-4 Rocket 2.7 22:44:34 10° NNW 22:48:08 64° W 22:48:46 52° SSW
Cosmos 1697 Rocket 2.6 22:43:00 10° NNW 22:48:39 87° WSW 22:50:57 38° SSE
CZ-4C R/B 4.2 22:52:04 30° ENE 22:52:14 30° ENE 22:55:27 10° N
SL-16 R/B 3.7 22:49:56 10° N 22:54:41 26° NE 22:57:37 17° E
CZ-4B R/B 3.8 22:50:41 10° NNE 22:55:37 49° E 22:56:47 41° SE
Cosmos 1656 4.0 22:50:31 10° NNW 22:55:49 53° WSW 22:58:04 32° SSW
Iridium 2 3.9 22:52:51 10° N 22:56:35 52° E 22:56:44 52° E
Cosmos 1842 3.4 22:59:00 52° E 22:59:03 53° E 23:02:54 10° NNE
Cosmos 1602 Rocket 3.7 23:01:02 39° SSW 23:02:32 69° W 23:06:52 10° N
DMSP B5D2-2 4.3 22:58:11 10° N 23:03:27 68° WNW 23:06:34 25° SSW
Cosmos 1271 Rocket 2.7 23:00:28 10° N 23:04:21 69° E 23:04:38 66° ESE
SL-19 R/B 4.3 23:04:46 62° SSE 23:05:27 85° ENE 23:09:17 10° NNW
Cosmos 1833 Rocket 3.0 23:00:38 12° SW 23:05:52 63° WNW 23:11:29 10° NNE
CZ-4 R/B 3.8 23:04:52 10° NNE 23:09:56 80° ESE 23:11:25 46° S
deb Chang Zheng 4 3.5 23:06:13 10° NNE 23:10:33 79° WNW 23:11:40 49° SSW
Cosmos 1269 Rocket 3.9 23:10:47 41° SSW 23:12:41 84° ESE 23:18:01 10° NNE
Timation 2 Rocket 3.9 23:08:52 23° SSW 23:13:05 89° NW 23:19:16 10° NNE
Cosmos 389 Rocket 3.4 23:15:09 10° N 23:17:59 39° NE 23:17:59 39° NE
Cosmos 1953 2.7 23:14:57 10° N 23:18:58 51° E 23:19:02 51° E
Cosmos 1420 Rocket 4.4 23:14:53 10° NNW 23:20:00 53° WSW 23:21:26 40° SSW
DELTA 2 DEB (DPAF) 4.0 23:20:03 64° SSE 23:20:43 83° ENE 23:25:13 10° NNW
Cosmos 1048 Rocket 4.0 23:22:41 37° SSW 23:24:43 75° WNW 23:29:55 10° NNE
CZ-2C R/B 4.4 23:23:18 26° E 23:25:05 32° ENE 23:30:03 10° N
Cosmos 1934 Rocket 4.5 23:21:50 10° N 23:28:00 49° ENE 23:29:56 38° ESE
Cosmos 1331 Rocket 4.4 23:23:44 10° N 23:28:46 50° ENE 23:29:56 42° ESE
Cosmos 1110 Rocket 4.2 23:25:31 10° NNW 23:30:44 59° ENE 23:31:52 48° ESE
Cosmos 1766 4.4 23:31:08 10° NNW 23:34:41 34° W 23:35:01 34° WSW
Cosmos 2360 Rocket 4.0 23:30:52 10° N 23:35:20 23° NE 23:38:26 15° E
SL-24 R/B - RUBIN 2 4.5 23:32:22 32° SSW 23:35:45 83° ESE 23:42:18 10° NE
Tiangong 2 3.8 23:32:38 10° W 23:33:10 14° W 23:33:10 14° W
Cosmos 1544 3.6 23:32:40 10° NNW 23:35:56 51° WNW 23:35:56 51° WNW
Cosmos 1980 Rocket 2.4 23:31:18 10° NNW 23:36:52 60° WSW 23:38:08 48° SSW
Lacrosse 5 rocket 2.9 23:38:50 10° NW 23:43:10 36° NNE 23:45:12 24° E
SME Rocket 3.4 23:43:00 58° SE 23:43:50 72° ENE 23:47:59 10° N
Cosmos 2322 Rocket 2.4 23:41:50 10° NNW 23:47:31 62° ENE 23:48:59 47° ESE
Terra 3.3 23:46:49 23° WSW 23:48:01 25° W 23:51:59 10° NW
Nadezhda 3 Rocket 4.2 23:46:50 37° SSW 23:49:25 67° W 23:55:46 10° N
Cosmos 1758 Rocket 3.4 23:50:41 88° W 23:50:41 88° W 23:55:03 10° N
USA 267 3.2 23:44:23 10° NE 23:50:53 63° SE 23:52:59 43° SSW
Cosmos 1470 3.1 23:46:55 10° N 23:50:32 61° NE 23:50:32 61° NE
H-2A R/B 3.9 23:52:19 21° WSW 23:53:13 22° W 23:56:45 10° NW
